This is the latest recevied weather packets stored in our database for station/object KQ4UPF. If no packets are shown the sender has not sent any weather packets the latest 10 day(s).
| Time | Temp. | Humidity | Pressure | Rain* | Wind** | Luminosity | Snow |
|---|---|---|---|---|---|---|---|
| 1777667807 | 18.89° C | 60% | 1014.7 hPa | 0 mm | - | 335 W/m² | - |
| 1777667504 | 18.33° C | 55% | 1014.8 hPa | 0 mm | - | 335 W/m² | - |
| 1777667201 | 18.33° C | 56% | 1014.9 hPa | 0 mm | - | 370 W/m² | - |
| 1777666898 | 18.89° C | 53% | 1015.1 hPa | 0 mm | - | 327 W/m² | - |
| 1777666595 | 18.89° C | 58% | 1015.2 hPa | 0 mm | - | 337 W/m² | - |
| 1777666292 | 18.89° C | 55% | 1015.2 hPa | 0 mm | - | 339 W/m² | - |
| 1777665989 | 18.33° C | 63% | 1015.6 hPa | 0 mm | - | 331 W/m² | - |
| 1777665686 | 18.33° C | 55% | 1015.6 hPa | 0 mm | - | 366 W/m² | - |
| 1777665384 | 18.33° C | 52% | 1015.5 hPa | 0 mm | - | 333 W/m² | - |
| 1777665079 | 18.89° C | 58% | 1015.8 hPa | 0 mm | - | 284 W/m² | - |
| 1777664774 | 18.89° C | 57% | 1015.9 hPa | 0 mm | - | 338 W/m² | - |
| 1777664470 | 18.89° C | 58% | 1015.6 hPa | 0 mm | - | 439 W/m² | - |
| 1777664168 | 18.33° C | 60% | 1015.8 hPa | 0 mm | - | 432 W/m² | - |
| 1777663867 | 18.33° C | 52% | 1015.9 hPa | 0 mm | - | 382 W/m² | - |
| 1777663563 | 18.33° C | 58% | 1016 hPa | 0 mm | - | 351 W/m² | - |
| 1777663261 | 18.33° C | 57% | 1016 hPa | 0 mm | - | 382 W/m² | - |
| 1777662958 | 18.33° C | 57% | 1015.8 hPa | 0 mm | - | 402 W/m² | - |
| 1777662655 | 18.33° C | 54% | 1016.1 hPa | 0 mm | - | 458 W/m² | - |
| 1777662350 | 18.33° C | 57% | 1016.2 hPa | 0 mm | - | 343 W/m² | - |
| 1777662046 | 18.89° C | 59% | 1015.8 hPa | 0 mm | - | 348 W/m² | - |
| 1777661743 | 18.89° C | 56% | 1015.9 hPa | 0 mm | - | 421 W/m² | - |
| 1777661438 | 18.89° C | 51% | 1015.8 hPa | 0 mm | - | 460 W/m² | - |
| 1777661135 | 18.89° C | 57% | 1015.9 hPa | 0 mm | - | 461 W/m² | - |
| 1777660834 | 18.33° C | 57% | 1015.8 hPa | 0 mm | - | 397 W/m² | - |
| 1777660532 | 18.33° C | 59% | 1015.7 hPa | 0 mm | - | 360 W/m² | - |
* Rain latest hour (hover to see other rain measurements)
** Current wind speed in m/s (hover to see current wind gust speed)